Location: Mahannah Oil Field
(37.4664°N, 96.6003°W)
Time: 14:12:50
(UTC+00:00)

Transit 4A - Visible Passes

Search period start: 23 January 2021 00:00
Search period end: 02 February 2021 00:00
Orbit: 864 x 980 km, 66.8° (Epoch: 23 January)

Date Brightness Start Highest point End Pass type
(mag) Time Alt. Az. Time Alt. Az. Time Alt. Az.
23 Jan 9.1 00:16:05 10° SSE 00:20:56 23° ESE 00:25:48 10° NE visible
23 Jan 8.5 02:00:35 10° SW 02:06:51 56° WNW 02:09:26 35° N visible
23 Jan 10.7 03:52:40 10° WNW 03:53:01 10° NW 03:53:01 10° NW visible
23 Jan 10.7 09:29:09 10° E 09:29:09 10° E 09:29:13 10° E visible
23 Jan 7.9 11:12:44 64° SSW 11:12:44 64° SSW 11:17:50 10° SSE visible
24 Jan 8.6 00:24:20 10° S 00:30:02 35° ESE 00:35:45 10° NE visible
24 Jan 9.1 02:10:23 10° WSW 02:16:18 39° NW 02:19:28 24° N visible
24 Jan 10.6 09:39:23 11° ESE 09:39:23 11° ESE 09:39:38 10° ESE visible
24 Jan 8.6 11:22:58 36° SSW 11:22:58 36° SSW 11:26:47 10° S visible
25 Jan 8.2 00:33:02 10° S 00:39:11 53° ESE 00:45:24 10° NE visible
25 Jan 9.7 02:20:29 10° WSW 02:25:52 28° NW 02:29:24 17° N visible
25 Jan 10.6 09:49:39 10° ESE 09:49:39 10° ESE 09:49:40 10° ESE visible
25 Jan 9.4 11:33:15 20° SSW 11:33:15 20° SSW 11:35:22 10° SSW visible
26 Jan 8.0 00:42:03 10° SSW 00:48:26 79° ESE 00:54:51 10° NNE visible
26 Jan 10.1 02:30:59 10° W 02:35:31 20° NW 02:39:13 13° N visible
27 Jan 8.3 00:51:23 10° SW 00:57:46 72° WNW 01:04:10 10° NNE visible
27 Jan 10.4 02:42:00 10° WNW 02:45:16 14° NW 02:48:33 10° N visible
28 Jan 8.9 01:01:00 10° SW 01:07:10 49° WNW 01:13:21 10° NNE visible
29 Jan 9.5 01:10:55 10° WSW 01:16:40 34° NW 01:22:26 10° N visible
30 Jan 9.9 01:21:09 10° WSW 01:26:15 24° NW 01:31:21 10° N visible
31 Jan 10.3 01:31:48 10° W 01:35:56 18° NW 01:40:05 10° N visible
01 Feb 10.4 01:43:07 10° WNW 01:45:44 13° NW 01:48:21 10° NNW visible
